Regional Weather Roundup
Issued by NWS Huntsville, AL

Home | Current Version | Previous Version | Text Only | Print | Product List | Glossary On
Versions: 1 2 3 4 5 6 7 8 9 10 11 12 13 14 15 16 17 18 19 20 21 22 23 24 25 26 27 28 29 30 31 32 33 34 35 36 37 38 39 40 41 42 43 44 45 46 47 48 49 50
000
ASUS44 KHUN 060910
RWRHUN

WEATHER ROUNDUP FOR THE TENNESSEE VALLEY
NATIONAL WEATHER SERVICE HUNTSVILLE AL
300 AM CST FRI MAR 06 2015

ALZ001>004-061000-
NORTHWEST ALABAMA

CITY           SKY/WX    TMP DP  RH WIND       PRES   REMARKS
COURTLAND HCN    N/A     18 N/A N/A N3          N/A
RUSSELLVILLE     N/A     16 N/A N/A MISG        N/A
SHOALS AIRPORT CLEAR     18   9  68 N6        30.53F WCI  10
SHOALS TVA RES   N/A     18 N/A N/A MISG        N/A
$$

ALZ005>007-016-061000-
NORTH CENTRAL ALABAMA

CITY           SKY/WX    TMP DP  RH WIND       PRES   REMARKS
CULLMAN AG STN   N/A     18 N/A N/A N8          N/A  WCI   7
DECATUR AP     PTCLDY    17  11  77 N8        30.51F WCI   7
HUNTSVILLE AP  CLEAR     19  12  74 N6        30.49F WCI  11
HUN NWS/UAH      N/A     17  11  77 N5          N/A  WCI  10
MERIDIANVILLE  CLEAR     18  12  79 N5        30.49F WCI  11
REDSTONE ARSN  CLEAR     17  13  85 N8        30.47F WCI   6
VINEMONT AP    FAIR      17  12  83 N7        30.46F WCI   7
$$

ALZ008>010-061000-
NORTHEAST ALABAMA

CITY           SKY/WX    TMP DP  RH WIND       PRES   REMARKS
ALBERTVILLE    PTCLDY    21  19  93 N12       30.40F WCI   9
FORT PAYNE     PTCLDY    21  12  68 N8        30.41F WCI  12
SCOTTSBORO AP  PTCLDY    19  12  73 NE9       30.48S WCI   9
SCOTTSBORO HCN   N/A     21 N/A N/A MISG        N/A
VALLEY HEAD      N/A     21 N/A N/A MISG        N/A
$$

TNZ076-096-097-061000-
SOUTHEASTERN MIDDLE TENNESSEE

CITY           SKY/WX    TMP DP  RH WIND       PRES   REMARKS
TULLAHOMA      CLEAR     10   9  92 N3          N/A
WINCHESTER     CLEAR     16  12  86 CALM      30.47F
$$

...SURROUNDING SITES...

CITY           SKY/WX    TMP DP  RH WIND       PRES   REMARKS
ATLANTA        CLOUDY    28  21  75 N9        30.32S WCI  19
ANNISTON       PTCLDY    24  16  71 NE8       30.40F WCI  15
BIRMINGHAM     CLEAR     20  16  84 N9        30.45F WCI   9
CHATTANOOGA    CLOUDY    24  13  62 N13       30.45F WCI  12
CORINTH        FAIR      19  10  68 NE7       30.54F WCI  10
DALTON         MOCLDY    23  19  86 N13G20    30.41S WCI  11
GADSDEN        PTCLDY    21  14  73 N13       30.41F WCI   9
GOLDEN TRNGL   CLEAR     21  16  79 N9        30.50F WCI  11
HALEYVILLE       N/A     14  11  88 N7        30.49F WCI   4
JACKSON TN     PTCLDY    14   5  67 NE3       30.57S
LEWISBURG      FAIR      13   7  77 N3        30.51S
MEMPHIS        CLEAR     19   8  62 NE6       30.57S WCI  11
MURFREESBORO   FAIR      12   7  81 CALM      30.53S
NASHVILLE      PTCLDY    12   7  80 NW3       30.55S
OXFORD MS      FAIR      16  10  79 CALM      30.56F
ROME           CLEAR     24  17  74 N10       30.40S WCI  14
SAVANNAH       CLEAR     16   7  67 N3        30.55S
TUPELO         CLEAR     20  11  68 NE9       30.54F WCI   9
TUSCALOOSA     PTCLDY    24  15  68 N13       30.49F WCI  12
$$

...GULF COAST WEATHER...

CITY           SKY/WX    TMP DP  RH WIND       PRES   REMARKS
GULFPORT       PTCLDY    30  18  60 N15       30.40F WCI  19
PASCAGOULA     PTCLDY    30  20  66 N14G26    30.39F WCI  19
MOBILE         CLEAR     28  20  71 N17G24    30.39F WCI  16
GULF SHORES    MOSUNNY   31  25  76 N10G20    30.36S WCI  23
PENSACOLA      PTCLDY    33  25  72 N20G29    30.34S WCI  21
DESTIN         CLOUDY    36  28  73 N21G30    30.30F WCI  25
PANAMA CITY    PTCLDY    40  33  77 N14G22    30.27S WCI  32
APPALACHICOLA  MOCLDY    47  36  65 N16       30.23S
$$




USA.gov is the U.S. government's official web portal to all federal, state and local government web resources and services.